Location: Wien
(48.2082°N, 16.3738°E)
Time: 09:31:50
(UTC+02:00)

Transit 4A - Pass Details

Date: 24 February 2024
Orbit: 871 x 971 km, 66.8° (Epoch: 24 April)

Event Time Altitude Azimuth Distance (km) Brightness Sun altitude
Exits shadow 01:25:28 11° 43° (NE) 2,528 10.6 -48.2°
Drops below altitude 10° 01:25:40 10° 42° (NE) 2,601 10.7 -48.2°
Sets 01:28:12 0° 38° (NE) 3,531 11.6 -48.0°
